Regional Weather Roundup
Issued by NWS

Home | Current Version | Previous Version | Text Only | Print | Product List | Glossary Off
Versions: 1 2 3 4 5 6 7 8 9 10 11 12 13 14 15 16 17 18 19 20 21 22 23 24 25 26 27 28 29 30 31 32 33 34 35 36 37 38 39 40 41 42 43 44 45 46 47 48 49 50

000
ASUS43 KLSX 241459
RWRMO

WEATHER SUMMARY FOR MISSOURI
NATIONAL WEATHER SERVICE SPRINGFIELD MO
900 AM CST MON NOV 24 2014

NOTE: "FAIR" INDICATES FEW OR NO CLOUDS BELOW 12,000 FEET WITH NO
       SIGNIFICANT WEATHER AND/OR OBSTRUCTIONS TO VISIBILITY.
       CURRENT SKY AND/OR WEATHER CONDITIONS ARE NOT AVAILABLE FOR
       CHILLICOTHE AND FARMINGTON.

MOZ001>031-035>038-043-044-053-054-241600-
...NORTHERN AND WESTERN MISSOURI...

CITY           SKY/WX    TMP DP  RH WIND       PRES   REMARKS
KANSAS CTY INT PTSUNNY   34  25  69 W13       29.69R WCI  25
KANSAS C DTWN  CLOUDY    36  24  62 W10G20    29.70R WCI  28
LEE`S SUMMIT   CLOUDY    34  23  64 W15G24    29.70R WCI  24
ST JOSEPH      CLOUDY    32  24  72 NW12      29.69R WCI  23
CHILLICOTHE      N/A     32  22  66 NW12G21   29.64R WCI  23
KIRKSVILLE     CLOUDY    31  23  72 W14G24    29.56R WCI  21

$$
MOZ066>068-077>081-088>096-101>105-241600-
...SOUTHWEST MISSOURI...

CITY           SKY/WX    TMP DP  RH WIND       PRES   REMARKS
SPRINGFIELD    SUNNY     40  29  64 W17G26    29.76R
JOPLIN         SUNNY     40  29  64 SW15      29.82R

$$
MOZ032>034-039>042-045>050-055>058-069>072-241600-
...CENTRAL MISSOURI...

CITY           SKY/WX    TMP DP  RH WIND       PRES   REMARKS
COLUMBIA       CLOUDY    35  26  69 W16G26    29.64R WCI  25
JEFFERSON CITY CLOUDY    36  26  67 W14G22    29.68R WCI  27
ROLLA          CLOUDY    35  27  72 W9        29.64R WCI  28
SEDALIA        CLOUDY    36  26  67 W16G26    29.69R WCI  26
OSAGE BEACH    MOSUNNY   37  27  65 W17G23    29.69R WCI  28

$$
MOZ051-052-059>065-241600-
...EAST CENTRAL MISSOURI...

CITY           SKY/WX    TMP DP  RH WIND       PRES   REMARKS
ST LOUIS INTL  CLOUDY    39  29  67 W22G36    29.61R WCI  29
SPIRIT OF STL  CLOUDY    37  29  72 W13G23    29.62R WCI  29
ST CHARLES     CLOUDY    37  29  72 W22G32    29.60R WCI  26

$$
MOZ072>076-082>087-097>100-106>115-241600-
...SOUTH CENTRAL AND SOUTHEAST MISSOURI...

CITY           SKY/WX    TMP DP  RH WIND       PRES   REMARKS
CAPE GIRARDEAU CLOUDY    45  37  73 W16G25    29.69R
FARMINGTON     CLOUDY    39  28  65 W21       29.66R WCI  29
POPLAR BLUFF   PTSUNNY   46  33  60 W15G23    29.73R
WEST PLAINS    SUNNY     40  27  59 W16G26    29.75R

$$



USA.gov is the U.S. government's official web portal to all federal, state and local government web resources and services.